FW8644 Weather Reports


time (UTC)temp
C
wind
direction
speed
KPH
gust
KPH
rain 1hr
cm
rain 24hr
cm
rain mn
cm
humidity
%
barometer
mb
20260505140309 32 155 0.0 6.4 0.00 0.00 0.00 70 1018.2
20260505130306 30 152 0.0 6.4 0.00 0.00 0.00 78 1018.0
20260505130301 30 65 0.0 6.4 0.00 0.00 0.00 78 1018.1
20260505124759 30 115 0.0 3.2 0.00 0.00 0.00 79 1018.0
20260505124300 30 38 0.0 3.2 0.00 0.00 0.00 80 1018.1
20260505123759 30 56 0.0 6.4 0.00 0.00 0.00 80 1018.0
20260505123259 29 89 0.0 6.4 0.00 0.00 0.00 80 1018.0
20260505122802 29 122 0.0 3.2 0.00 0.00 0.00 81 1017.8
20260505122758 29 82 0.0 4.8 0.00 0.00 0.00 80 1018.0
20260505121814 28 119 0.0 3.2 0.00 0.00 0.00 83 1017.8
20260505121807 29 72 0.0 3.2 0.00 0.00 0.00 82 1017.8
20260505120803 28 345 0.0 3.2 0.00 0.00 0.00 84 1017.9
20260505120757 28 40 0.0 3.2 0.00 0.00 0.00 83 1017.8
20260505115757 27 24 0.0 1.6 0.00 0.00 0.00 85 1017.7
20260505115257 27 17 0.0 1.6 0.00 0.00 0.00 88 1017.6
20260505114757 26 322 0.0 0.0 0.00 0.00 0.00 89 1017.6
20260505114256 26 46 0.0 0.0 0.00 0.00 0.00 91 1017.5
20260505113755 25 60 0.0 0.0 0.00 0.00 0.00 91 1017.5
20260505113254 25 89 0.0 0.0 0.00 0.00 0.00 92 1017.5
20260505112755 25 57 0.0 0.0 0.00 0.00 0.00 92 1017.5
20260505112255 25 62 0.0 0.0 0.00 0.00 0.00 93 1017.5
20260505111756 25 98 0.0 0.0 0.00 0.00 0.00 93 1017.6
20260505111255 24 98 0.0 0.0 0.00 0.00 0.00 93 1017.5
20260505110800 23 98 0.0 0.0 0.00 0.00 0.00 93 1017.4
20260505110755 23 98 0.0 0.0 0.00 0.00 0.00 93 1017.6
20260505101254 21 98 0.0 0.0 0.00 0.00 0.00 92 1016.9
20260505100753 21 98 0.0 0.0 0.00 0.00 0.00 92 1016.9
20260505100254 21 98 0.0 0.0 0.00 0.00 0.00 92 1016.9
20260505095752 21 98 0.0 0.0 0.00 0.00 0.00 92 1016.8
20260505095251 21 98 0.0 0.0 0.00 0.00 0.00 92 1016.7
20260505094750 21 98 0.0 0.0 0.00 0.00 0.00 92 1016.7
20260505094252 21 98 0.0 0.0 0.00 0.00 0.00 92 1016.5
20260505093752 21 98 0.0 0.0 0.00 0.00 0.00 92 1016.5
20260505093251 21 98 0.0 0.0 0.00 0.00 0.00 92 1016.6
20260505092750 22 98 0.0 0.0 0.00 0.00 0.00 92 1016.5
20260505092251 22 98 0.0 0.0 0.00 0.00 0.00 92 1016.5
20260505091752 22 98 0.0 0.0 0.00 0.00 0.00 92 1016.6
20260505091252 22 98 0.0 0.0 0.00 0.00 0.00 92 1016.6
20260505090754 22 98 0.0 0.0 0.00 0.00 0.00 92 1016.6
20260505090748 22 98 0.0 0.0 0.00 0.00 0.00 92 1016.5
20260505085748 22 98 0.0 0.0 0.00 0.00 0.00 92 1016.5
20260505085255 22 98 0.0 0.0 0.00 0.00 0.00 92 1016.3
20260505085249 22 98 0.0 0.0 0.00 0.00 0.00 92 1016.4
20260505084749 22 98 0.0 0.0 0.00 0.00 0.00 92 1016.3
20260505083749 22 98 0.0 0.0 0.00 0.00 0.00 92 1016.2
20260505083249 22 98 0.0 0.0 0.00 0.00 0.00 92 1016.3
20260505082750 22 98 0.0 0.0 0.00 0.00 0.00 92 1016.4
20260505082250 22 98 0.0 0.0 0.00 0.00 0.00 92 1016.4
20260505081750 22 98 0.0 0.0 0.00 0.00 0.00 92 1016.3
20260505081250 22 98 0.0 0.0 0.00 0.00 0.00 92 1016.4
20260505080748 22 98 0.0 0.0 0.00 0.00 0.00 92 1016.5
20260505080256 22 98 0.0 0.0 0.00 0.00 0.00 92 1016.5
20260505080248 22 98 0.0 0.0 0.00 0.00 0.00 92 1016.4
20260505075908 22 98 0.0 0.0 0.00 0.00 0.00 92 1016.4
20260505075746 22 98 0.0 0.0 0.00 0.00 0.00 92 1016.4
20260505075246 22 98 0.0 0.0 0.00 0.00 0.00 92 1016.5
20260505073744 22 98 0.0 0.0 0.00 0.00 0.00 92 1016.2
20260505073243 22 98 0.0 0.0 0.00 0.00 0.00 92 1016.3
20260505072744 22 98 0.0 0.0 0.00 0.00 0.00 91 1016.3
20260505072243 22 98 0.0 0.0 0.00 0.00 0.00 91 1016.2
20260505071743 22 98 0.0 0.0 0.00 0.00 0.00 91 1016.2
20260505071242 22 98 0.0 0.0 0.00 0.00 0.00 91 1016.3
20260505070752 22 98 0.0 0.0 0.00 0.00 0.00 91 1016.3
20260505070243 22 98 0.0 0.0 0.00 0.00 0.00 91 1016.2
20260505065746 22 98 0.0 0.0 0.00 0.00 0.00 91 1016.3
20260505065742 22 98 0.0 0.0 0.00 0.00 0.00 91 1016.3
20260505065358 22 98 0.0 0.0 0.00 0.00 0.00 91 1016.3
20260505064858 22 98 0.0 0.0 0.00 0.00 0.00 91 1016.4
20260505064853 22 98 0.0 0.0 0.00 0.00 0.00 91 1016.4
20260505063236 22 98 0.0 0.0 0.00 0.00 0.00 91 1016.4
20260505062736 22 97 0.0 0.0 0.00 0.00 0.00 91 1016.5
20260505062237 22 98 0.0 0.0 0.00 0.00 0.00 91 1016.6
20260505061734 22 98 0.0 0.0 0.00 0.00 0.00 91 1016.6
20260505061235 22 98 0.0 0.0 0.00 0.00 0.00 91 1016.5
20260505060736 22 98 0.0 0.0 0.00 0.00 0.00 91 1016.7
20260505060234 22 98 0.0 0.0 0.00 0.00 0.00 91 1016.6
20260505055733 22 98 0.0 0.0 0.00 0.00 0.00 91 1016.7
20260505055231 22 98 0.0 0.0 0.00 0.00 0.00 91 1016.7
20260505054731 23 98 0.0 0.0 0.00 0.00 0.00 90 1016.8
20260505054230 23 98 0.0 0.0 0.00 0.00 0.00 90 1016.8
20260505053732 23 98 0.0 0.0 0.00 0.00 0.00 90 1016.8
20260505053230 23 98 0.0 0.0 0.00 0.00 0.00 90 1017.1
20260505052729 23 98 0.0 0.0 0.00 0.00 0.00 90 1017.1
20260505052233 23 98 0.0 0.0 0.00 0.00 0.00 90 1017.1
20260505052228 23 98 0.0 0.0 0.00 0.00 0.00 90 1017.0
20260505051839 23 98 0.0 0.0 0.00 0.00 0.00 90 1017.2
20260505051344 23 98 0.0 0.0 0.00 0.00 0.00 90 1017.2
20260505050226 23 98 0.0 0.0 0.00 0.00 0.00 90 1017.1
20260505041724 23 98 0.0 0.0 0.00 0.00 0.00 89 1017.6
20260505041224 23 98 0.0 0.0 0.00 0.00 0.00 89 1017.7
20260505040726 23 98 0.0 0.0 0.00 0.00 0.00 89 1017.7
20260505040722 23 98 0.0 0.0 0.00 0.00 0.00 89 1017.7
20260505035724 23 98 0.0 0.0 0.00 0.00 0.00 88 1017.7
20260505035222 24 98 0.0 0.0 0.00 0.00 0.00 88 1017.8
20260505034722 24 98 0.0 0.0 0.00 0.00 0.00 88 1017.8
20260505034222 24 98 0.0 0.0 0.00 0.00 0.00 88 1017.9
20260505033727 24 98 0.0 0.0 0.00 0.00 0.00 88 1018.0
20260505033722 24 98 0.0 0.0 0.00 0.00 0.00 88 1018.0
20260505033335 24 98 0.0 0.0 0.00 0.00 0.00 88 1018.1
20260505032223 24 98 0.0 0.0 0.00 0.00 0.00 88 1018.1
20260505031724 24 98 0.0 0.0 0.00 0.00 0.00 87 1018.1
20260505031222 24 98 0.0 0.0 0.00 0.00 0.00 87 1018.0
20260505030724 24 98 0.0 0.0 0.00 0.00 0.00 87 1018.0
20260505030720 24 98 0.0 0.0 0.00 0.00 0.00 87 1018.0
20260505025721 25 98 0.0 0.0 0.00 0.00 0.00 87 1018.1
20260505025225 25 98 0.0 0.0 0.00 0.00 0.00 87 1018.0
20260505025221 25 98 0.0 0.0 0.00 0.00 0.00 87 1018.0
20260505024225 25 98 0.0 0.0 0.00 0.00 0.00 87 1017.9
20260505024220 25 98 0.0 0.0 0.00 0.00 0.00 87 1018.0
20260505023219 25 98 0.0 0.0 0.00 0.00 0.00 87 1018.0
20260505022718 25 98 0.0 0.0 0.00 0.00 0.00 87 1018.0
20260505022218 25 98 0.0 0.0 0.00 0.00 0.00 86 1017.9
20260505021724 25 98 0.0 0.0 0.00 0.00 0.00 86 1017.7
20260505021719 25 97 0.0 0.0 0.00 0.00 0.00 86 1017.8
20260505020627 25 98 0.0 0.0 0.00 0.00 0.00 86 1017.7
20260505020132 25 98 0.0 0.0 0.00 0.00 0.00 86 1017.7
20260505020119 25 98 0.0 0.0 0.00 0.00 0.00 86 1017.7
20260505014756 25 98 0.0 0.0 0.00 0.00 0.00 86 1017.7
20260505014301 25 98 0.0 0.0 0.00 0.00 0.00 86 1017.6
20260505014255 25 98 0.0 0.0 0.00 0.00 0.00 86 1017.7
20260505013253 25 98 0.0 0.0 0.00 0.00 0.00 86 1017.5
20260505012754 25 98 0.0 0.0 0.00 0.00 0.00 85 1017.5
20260505012252 25 98 0.0 0.0 0.00 0.00 0.00 85 1017.5
20260505011752 25 98 0.0 0.0 0.00 0.00 0.00 85 1017.4
20260505011253 26 98 0.0 0.0 0.00 0.00 0.00 85 1017.3
20260505010757 26 98 0.0 0.0 0.00 0.00 0.00 84 1017.1
20260505010751 26 98 0.0 0.0 0.00 0.00 0.00 84 1017.3
20260505005408 26 98 0.0 0.0 0.00 0.00 0.00 84 1017.0
20260505004905 26 98 0.0 0.0 0.00 0.00 0.00 84 1017.0
20260505004413 26 98 0.0 0.0 0.00 0.00 0.00 84 1017.0
20260505003903 26 98 0.0 0.0 0.00 0.00 0.00 83 1017.0
20260505003420 26 98 0.0 0.0 0.00 0.00 0.00 83 1016.7
20260505002532 27 98 0.0 0.0 0.00 0.00 0.00 82 1016.6
20260505002036 27 98 0.0 0.0 0.00 0.00 0.00 82 1016.6
20260505001525 27 98 0.0 0.0 0.00 0.00 0.00 82 1016.7
20260505001032 27 98 0.0 0.0 0.00 0.00 0.00 82 1016.6
20260505000521 27 98 0.0 0.0 0.00 0.00 0.00 81 1016.6
20260505000032 27 98 0.0 0.0 0.00 0.00 0.00 81 1016.5
20260504235535 27 98 0.0 0.0 0.00 0.00 0.00 81 1016.4
20260504235522 27 98 0.0 0.0 0.00 0.00 0.00 81 1016.4
20260504234524 27 100 0.0 0.0 0.00 0.00 0.00 81 1016.4
20260504234032 27 100 0.0 0.0 0.00 0.00 0.00 80 1016.3
20260504233523 27 101 0.0 0.0 0.00 0.00 0.00 80 1016.4
20260504233031 27 101 0.0 0.0 0.00 0.00 0.00 80 1016.3
20260504232521 27 101 0.0 0.0 0.00 0.00 0.00 80 1016.3
20260504232028 28 101 0.0 0.0 0.00 0.00 0.00 80 1016.3
20260504231520 28 101 0.0 0.0 0.00 0.00 0.00 80 1016.2
20260504231031 28 114 0.0 0.0 0.00 0.00 0.00 79 1016.2
20260504230520 28 115 0.0 0.0 0.00 0.00 0.00 79 1016.1
20260504230024 28 115 0.0 0.0 0.00 0.00 0.00 79 1016.0
20260504225520 28 114 0.0 0.0 0.00 0.00 0.00 78 1015.9
20260504225023 28 114 0.0 0.0 0.00 0.00 0.00 78 1015.8
20260504224520 28 127 0.0 1.6 0.00 0.00 0.00 78 1015.8
20260504224036 29 132 0.0 1.6 0.00 0.00 0.00 76 1015.6
20260504224031 29 127 0.0 1.6 0.00 0.00 0.00 77 1015.8
20260504222954 30 46 0.0 1.6 0.00 0.00 0.00 76 1015.5
20260504222948 29 132 0.0 1.6 0.00 0.00 0.00 76 1015.6
20260504221949 30 113 0.0 1.6 0.00 0.00 0.00 76 1015.4
20260504221448 30 129 0.0 1.6 0.00 0.00 0.00 75 1015.4
20260504220949 30 103 0.0 1.6 0.00 0.00 0.00 76 1015.2
20260504220454 29 108 0.0 0.0 0.00 0.00 0.00 79 1015.1
20260504220448 30 104 0.0 0.0 0.00 0.00 0.00 77 1015.3
20260504215948 30 17 0.0 0.0 0.00 0.00 0.00 78 1015.2
20260504215607 29 109 0.0 0.0 0.00 0.00 0.00 80 1015.0
20260504214447 29 108 0.0 0.0 0.00 0.00 0.00 81 1014.9
20260504213949 29 108 0.0 1.6 0.00 0.00 0.00 80 1014.8
20260504213445 29 43 0.0 4.8 0.00 0.00 0.00 81 1014.9
20260504212953 29 76 0.0 8.0 0.00 0.00 0.00 81 1014.9
20260504212947 29 32 0.0 8.0 0.00 0.00 0.00 81 1014.9
20260504212604 29 138 0.0 8.0 0.00 0.00 0.00 81 1014.9
20260504212142 30 108 3.2 12.9 0.00 0.00 0.00 78 1014.4
20260504212105 29 188 1.6 8.0 0.00 0.00 0.00 81 1014.7
20260504211818 30 25 3.2 11.3 0.00 0.00 0.00 79 1014.6
20260504211635 30 122 3.2 11.3 0.00 0.00 0.00 79 1014.6
20260504211629 30 110 3.2 12.9 0.00 0.00 0.00 79 1014.6
20260504211623 30 86 1.6 14.5 0.00 0.00 0.00 80 1014.7
20260504211618 29 119 1.6 14.5 0.00 0.00 0.00 81 1014.7
20260504203517 30 94 3.2 12.9 0.00 0.00 0.00 80 1014.4
20260504203017 30 94 3.2 12.9 0.00 0.00 0.00 80 1014.4
20260504202518 30 114 1.6 9.7 0.00 0.00 0.00 79 1014.4
20260504202009 31 108 1.6 14.5 0.00 0.00 0.00 76 1014.4
20260504201511 31 39 1.6 14.5 0.00 0.00 0.00 76 1014.4
20260504201011 31 107 1.6 11.3 0.00 0.00 0.00 76 1014.3
20260504200511 31 77 1.6 11.3 0.00 0.00 0.00 77 1014.3
20260504200003 31 31 1.6 11.3 0.00 0.00 0.00 78 1014.4
20260504195506 31 105 3.2 11.3 0.00 0.00 0.00 77 1014.3
20260504195008 31 6 3.2 12.9 0.00 0.00 0.00 77 1014.3
20260504194508 31 82 3.2 14.5 0.00 0.00 0.00 78 1014.4
20260504194006 31 13 3.2 14.5 0.00 0.00 0.00 78 1014.5
20260504193504 31 161 1.6 14.5 0.00 0.00 0.00 76 1014.5
20260504193006 31 128 3.2 11.3 0.00 0.00 0.00 77 1014.5
20260504192501 31 71 3.2 14.5 0.00 0.00 0.00 77 1014.5
20260504192007 31 110 3.2 14.5 0.00 0.00 0.00 77 1014.5
20260504191511 31 41 3.2 14.5 0.00 0.00 0.00 77 1014.6
20260504191501 31 79 3.2 11.3 0.00 0.00 0.00 77 1014.6
20260504190505 31 94 3.2 14.5 0.00 0.00 0.00 77 1014.6
20260504190010 31 141 3.2 0.0 0.00 0.00 0.00 77 1014.6
20260504184816 31 81 3.2 12.9 0.00 0.00 0.00 77 1014.8
20260504184319 31 110 4.8 19.3 0.00 0.00 0.00 78 1014.9
20260504184314 31 99 3.2 14.5 0.00 0.00 0.00 77 1014.8
20260504183329 31 43 3.2 12.9 0.00 0.00 0.00 79 1015.1
20260504183314 31 120 4.8 20.9 0.00 0.00 0.00 78 1015.0
20260504182813 31 49 3.2 20.9 0.00 0.00 0.00 79 1015.0
20260504181813 31 124 3.2 12.9 0.00 0.00 0.00 78 1015.1
20260504181313 31 85 3.2 12.9 0.00 0.00 0.00 79 1015.3
20260504180824 31 87 4.8 16.1 0.00 0.00 0.00 77 1015.4
20260504180813 31 71 4.8 16.1 0.00 0.00 0.00 78 1015.4
20260504180411 31 99 4.8 14.5 0.00 0.00 0.00 76 1015.5
20260504175311 31 65 3.2 14.5 0.00 0.00 0.00 76 1015.6
20260504174817 32 60 3.2 16.1 0.00 0.00 0.00 75 1015.7
20260504174813 32 47 3.2 12.9 0.00 0.00 0.00 76 1015.6
20260504173810 32 88 3.2 16.1 0.00 0.00 0.00 76 1015.6
20260504173329 32 26 3.2 12.9 0.00 0.00 0.00 75 1015.7
20260504173311 31 20 3.2 16.1 0.00 0.00 0.00 76 1015.7
20260504172314 31 100 3.2 16.1 0.00 0.00 0.00 74 1015.8
20260504172309 32 53 1.6 14.5 0.00 0.00 0.00 76 1015.9
20260504171923 31 88 4.8 16.1 0.00 0.00 0.00 76 1016.0
20260504171424 32 58 3.2 12.9 0.00 0.00 0.00 74 1016.0
20260504170309 32 69 3.2 12.9 0.00 0.00 0.00 73 1016.0
20260504160325 33 91 1.6 12.9 0.00 0.00 0.00 60 1016.7
20260504160319 33 63 1.6 8.0 0.00 0.00 0.00 60 1016.8
20260504150259 32 29 0.0 4.8 0.00 0.00 0.00 70 1017.3